Location: Oriwa
(40.7500°S, 175.3333°E)
Time: 12:07:12
(UTC+00:00)

FENGYUN 3A - Pass Details

Date: 03 February 2023
Orbit: 824 x 835 km, 98.5° (Epoch: 31 March)

Event Time Altitude Azimuth Distance (km) Brightness Sun altitude
Exits shadow 14:51:49 55° 284° (WNW) 1,006 3.7 -24.3°
Maximum altitude 14:51:54 55° 280° (W) 1,006 3.8 -24.3°
Drops below altitude 10° 14:57:19 10° 202° (SSW) 2,479 6.5 -23.6°
Sets 14:59:45 0° 197° (SSW) 3,421 7.3 -23.4°
